Content
SEND FEEDBACK

Daily
Averages
Monthly
Summary
United States of America

YARMOUTH, MASSACHUSETTS


Home > North America > United States > Massachusetts
Elevation: 15 meters     Latitude: 41 40N     Longitude: 070 16W

WEATHER
 
SELECT A DAY
Number of Records: 212,034;   Date Range: 1/1/95 - 12/18/14
 
SHARE

PRINT THIS DATA

[ ← Previous Day ]
WEATHER ALMANAC - 6 JANUARY, 2013
[ Next Day → ]
[ °F ]   °C
Weather ElementAverageHighLow
Temperature0.5 °C4.4 °C (1:56 pm)-3.3 °C (1:56 am)
Dewpoint-1.2 °C1.1 °C (12:56 pm)-4.4 °C (1:56 am)
Humidity88.8 %100 % (8:26 am)76 % (3:56 pm)
Barometer1017.6 hPa1023 hPa (2:56 am)1013.9 hPa (3:56 pm)
Wind Speed9.8 km/h29.6 km/h (2:30 pm)
Wind Gust38.9 km/h (11:56 am)
Weather ElementAverage
Visibility12.6 km
Wind DirectionSSE (150.9 °)

Weather ElementTotal
Precipitation0.25 mm
Heating Degree Days17.8 (Base 18.3)
Averaged from 32 records on 6 January, 2013
WEATHER CONDITIONS BREAKOUT
WIND DIRECTION BREAKOUT
WEATHER BY HOUR - 6 JANUARY, 2013
[ °F ]   °C
Local TimeTemperatureDewpointHumidityBarometerVisibilityWind DirectionWind SpeedGust SpeedPrecipitationEventsConditions
1:56 AM-3.3 °C-4.4 °C92 %1022.7 hPa16.1 kmCalmClear
2:56 AM-2.2 °C-3.9 °C88 %1023 hPa16.1 kmCalmOvercast
3:56 AM-1.7 °C-3.9 °C85 %1021.3 hPa16.1 kmCalmOvercast
4:56 AM-1.7 °C-2.8 °C92 %1020 hPa16.1 kmCalmOvercast
5:56 AM-1.1 °C-2.8 °C88 %1020 hPa4.8 kmCalm0 mmSnowLight Snow
6:01 AM-1 °C-3 °C86 %1019.6 hPa4 kmCalm0 mmSnowLight Snow
6:23 AM-1 °C-2 °C93 %1019 hPa2.4 kmCalm0 mmSnowLight Snow
6:35 AM-1 °C-2 °C93 %1019.3 hPa4.8 kmSouth (190°)5.6 km/h0 mmSnowLight Snow
6:51 AM0 °C-1 °C93 %1019.3 hPa9.7 kmCalm0 mmOvercast
6:56 AM0 °C-1.1 °C92 %1019.3 hPa8 kmCalm0 mmSnowLight Snow
7:56 AM0.6 °C0 °C96 %1019 hPa6.4 kmSouth (180°)5.6 km/h0.25 mmSnowLight Snow
8:26 AM1 °C1 °C100 %1018.6 hPa14.5 kmWSW (240°)16.7 km/h0 mmOvercast
8:40 AM1 °C1 °C100 %1018.6 hPa16.1 kmWSW (250°)16.7 km/h0 mmOvercast
8:49 AM1 °C0 °C93 %1018.6 hPa12.9 kmWSW (240°)18.5 km/h0 mmOvercast
8:56 AM1.1 °C0 °C92 %1019 hPa12.9 kmWSW (250°)16.7 km/h0 mmOvercast
9:17 AM1 °C1 °C100 %1019 hPa11.3 kmWSW (250°)14.8 km/hOvercast
9:56 AM1.7 °C0.6 °C92 %1019 hPa11.3 kmWSW (240°)13 km/hOvercast
10:56 AM3.3 °C0 °C79 %1017.3 hPa16.1 kmWSW (240°)25.9 km/h37 km/hPartly Cloudy
11:56 AM3.3 °C0 °C79 %1015.9 hPa16.1 kmWSW (250°)25.9 km/h38.9 km/hOvercast
12:56 PM3.9 °C1.1 °C82 %1014.9 hPa16.1 kmSW (230°)24.1 km/h35.2 km/hMostly Cloudy
1:56 PM4.4 °C0.6 °C77 %1014.6 hPa16.1 kmWSW (250°)25.9 km/hMostly Cloudy
2:30 PM4 °C1 °C81 %1014.2 hPa16.1 kmWSW (250°)29.6 km/hScattered Clouds
2:56 PM4.4 °C0.6 °C77 %1014.6 hPa16.1 kmWSW (240°)24.1 km/hClear
3:56 PM3.9 °C0 °C76 %1013.9 hPa16.1 kmWSW (240°)13 km/hClear
4:56 PM2.8 °C-0.6 °C79 %1014.2 hPa16.1 kmWest (260°)9.3 km/hClear
5:56 PM0 °C-1.7 °C88 %1014.9 hPa14.5 kmCalmClear
6:56 PM-1.7 °C-3.3 °C89 %1014.9 hPa14.5 kmCalmClear
7:56 PM-2.8 °C-3.3 °C96 %1014.9 hPa12.9 kmWest (260°)7.4 km/hClear
8:56 PM0.6 °C-1.1 °C89 %1014.9 hPa16.1 kmWest (280°)9.3 km/hClear
9:56 PM-1.1 °C-2.8 °C88 %1014.9 hPa9.7 kmWSW (240°)5.6 km/hMostly Cloudy
10:56 PM-1.1 °C-2.2 °C92 %1015.2 hPa9.7 kmCalmOvercast
11:56 PM-1.7 °C-2.2 °C96 %1014.9 hPa11.3 kmWSW (250°)5.6 km/hOvercast
Hourly data recorded from KHYA, located 0 kilometers away from Yarmouth, Massachusetts







STORIES FROM OUR PARTNERS